Theta_e
288 289 289 289 289 290 288 289 284 288 289 293 295 297 299 302 305 307 309 313 321 324 325 328 330 332 336 337 333 329 326 323 322 321 320 318 316 315 313 310 307 305 303 301
285 289 291 289 291 292 291 292 290 291 290 296 298 300 302 305 306 307 308 317 317 322 325 324 323 323 323 323 324 323 321 320 319 317 317 315 314 312 310 308 304 300 296 295
280 289 288 285 289 292 293 295 294 288 292 297 296 300 302 305 307 307 310 319 317 318 322 322 322 322 322 321 321 320 319 318 316 316 314 314 314 311 307 303 300 296 293 291
281 284 277 290 293 292 291 295 296 293 295 298 299 300 303 306 305 308 311 319 320 321 321 323 322 321 321 320 318 317 316 315 315 314 314 313 311 309 308 304 299 294 291 290
281 282 287 290 289 288 288 289 294 292 295 296 300 300 300 306 311 313 316 319 321 322 321 320 320 320 318 318 317 316 315 314 314 314 313 312 310 309 306 303 302 295 293 292
284 282 281 284 289 293 292 287 292 292 292 292 296 291 297 304 308 313 316 318 318 320 319 319 319 319 317 315 315 314 314 314 314 314 311 310 307 305 303 299 298 298 296 294
284 284 286 289 291 294 285 286 291 292 293 293 297 298 303 308 311 314 317 317 319 319 318 318 319 318 315 314 313 314 314 314 313 312 310 309 306 305 303 298 296 294 292 291
281 282 278 291 290 283 288 291 297 299 301 298 300 302 305 307 310 312 316 318 318 317 316 317 316 315 312 311 314 313 312 311 310 309 309 307 305 304 303 301 300 295 290 288
282 282 290 292 291 292 294 296 298 299 301 301 301 302 304 306 309 313 315 315 315 313 311 313 313 313 310 310 311 310 309 309 306 299 297 296 296 297 302 301 297 291 287 285
286 289 290 291 292 293 296 298 299 300 299 301 300 302 303 306 308 310 311 310 311 310 309 309 311 310 310 310 309 298 296 294 293 293 290 290 290 291 292 291 289 289 286 284
286 289 289 292 291 293 296 299 298 299 300 300 301 301 303 305 307 307 308 309 309 308 308 308 309 309 305 300 298 295 292 290 288 287 286 286 286 287 287 286 287 285 283 283
283 288 287 288 292 294 296 297 298 298 298 301 302 302 303 304 306 306 306 307 307 307 307 307 306 301 300 299 296 293 290 289 287 286 285 285 285 285 289 289 290 289 289 286
287 291 292 292 293 297 297 298 298 299 300 300 302 303 304 304 305 306 306 306 306 305 305 304 301 301 300 298 295 293 290 289 289 288 286 286 286 286 284 287 290 289 289 289
292 292 290 292 291 296 297 298 300 300 301 301 301 303 303 304 304 304 303 304 305 304 303 303 301 299 299 298 296 295 294 293 290 288 288 288 288 288 288 286 284 284 288 288
291 293 292 294 296 295 297 297 296 297 299 300 301 302 303 303 303 303 304 305 304 304 303 301 300 299 301 301 299 297 296 294 293 292 292 292 292 291 289 288 286 285 286 289
291 292 293 293 293 293 294 296 295 295 298 299 299 300 302 302 302 303 304 304 302 300 302 303 302 302 303 302 299 297 296 294 295 295 294 292 291 289 288 288 287 286 285 285
289 288 290 291 292 292 292 294 296 296 297 298 299 300 301 301 301 302 302 303 302 302 302 300 299 300 300 299 297 297 297 297 294 294 293 291 290 288 288 286 285 286 285 285
293 293 293 293 293 292 292 295 296 297 297 298 300 300 300 300 299 299 300 300 299 299 299 299 299 299 299 298 298 297 295 295 294 293 293 291 290 289 288 287 286 287 286 287
293 293 294 294 294 294 293 295 296 298 298 299 299 298 299 299 298 298 299 298 297 296 296 298 297 298 297 297 296 296 295 294 293 292 292 291 290 290 289 288 287 287 287 287
294 294 295 295 296 296 295 296 296 297 298 298 298 298 297 297 297 297 297 295 296 297 298 298 298 296 295 295 294 294 294 292 292 291 291 289 289 288 288 288 288 287 287 287
293 295 295 295 295 296 296 297 295 296 297 298 297 297 296 296 297 296 295 294 296 297 296 295 295 295 295 294 294 293 292 292 291 290 289 288 288 288 288 287 287 287 287 286
294 294 295 296 295 295 297 297 297 296 297 296 298 297 297 295 296 296 297 294 294 294 294 291 289 289 291 293 295 293 293 293 291 291 289 288 288 288 287 287 287 287 286 285
295 295 295 295 295 295 296 297 296 297 297 298 297 297 295 296 297 293 291 295 295 292 291 288 286 288 289 296 295 294 294 293 291 290 289 289 288 288 287 287 287 286 285 284
295 296 295 296 297 296 295 296 297 297 297 298 299 299 298 296 295 295 295 291 289 291 290 288 288 289 290 294 294 294 293 292 291 289 289 287 288 287 287 286 286 286 286 286
295 296 296 295 294 294 296 297 297 297 297 297 297 298 298 297 294 292 292 291 289 291 289 285 287 289 295 294 293 292 292 290 290 290 290 288 287 288 287 287 287 287 286 285
296 295 296 295 295 296 295 296 295 297 297 295 296 296 295 294 293 293 293 292 293 291 290 290 292 293 293 293 293 293 292 291 291 291 291 288 287 286 286 287 287 287 286 286
296 295 296 295 296 296 296 295 295 294 296 295 294 295 294 294 293 292 291 292 291 292 292 292 292 293 294 294 293 293 292 292 290 291 291 290 289 289 288 288 288 287 286 286
Wind_Speed
18 23 21 23 23 20 17 13 10 14 18 18 6 11 2 2 9 11 17 19 10 18 12 14 13 13 14 16 19 25 24 23 23 21 19 20 15 16 16 15 12 12 12 11
17 20 14 18 18 17 19 16 14 18 21 18 5 7 8 10 2 7 12 3 1 25 25 22 24 20 21 18 14 24 25 25 22 22 20 19 17 16 16 14 13 12 11 11
9 12 20 2 12 11 14 10 11 11 17 14 3 5 7 9 10 7 6 7 7 19 25 24 25 23 16 22 21 23 20 22 21 20 20 19 18 17 15 15 14 12 11 11
8 11 3 2 17 12 16 10 10 12 17 14 7 3 4 3 10 7 6 11 14 19 22 22 23 25 22 17 24 18 17 18 18 20 21 19 17 15 15 14 14 12 11 9
4 5 7 4 15 13 10 12 10 11 15 19 7 5 5 11 2 7 8 12 16 20 24 24 25 25 27 17 20 19 18 18 17 20 20 17 16 15 14 15 13 14 11 11
3 5 3 4 21 21 17 6 14 17 19 20 20 3 2 12 2 15 2 19 20 23 25 24 26 25 24 21 20 19 19 19 19 17 17 16 15 16 15 14 13 11 10 8
5 5 3 9 21 20 3 7 23 22 21 19 8 1 4 4 8 11 12 22 22 24 22 23 25 27 23 21 20 19 20 20 17 15 16 15 16 14 15 15 14 12 12 9
5 4 4 20 9 6 9 24 16 10 6 13 6 2 3 7 15 1 18 22 24 22 22 20 22 25 24 23 21 21 20 19 17 16 13 13 17 13 13 13 13 11 11 9
3 4 8 12 7 12 17 15 9 10 8 7 6 6 11 11 5 11 19 20 22 23 26 21 22 21 26 23 22 21 20 18 15 15 15 14 11 9 7 8 10 10 8 8
5 1 9 10 12 15 17 8 9 10 9 8 8 13 10 8 5 18 17 20 23 25 25 24 22 22 21 22 20 19 19 17 15 17 16 14 11 10 10 10 9 8 8 7
5 5 10 3 12 17 14 9 9 10 9 8 11 16 11 10 9 18 17 19 21 23 23 23 22 21 19 20 19 20 18 16 16 14 16 15 13 9 11 7 9 9 5 5
2 5 4 11 14 16 11 8 8 8 11 11 14 14 14 9 12 17 19 19 21 21 22 20 20 21 19 17 18 19 18 13 12 12 12 12 13 13 19 16 17 15 11 8
3 6 9 9 11 8 8 7 7 8 8 11 13 14 14 14 15 20 19 20 21 21 19 19 19 19 16 16 17 18 18 16 13 13 12 12 11 12 13 11 14 14 13 12
5 7 6 4 5 5 6 8 8 8 9 10 13 13 12 14 16 18 18 18 20 20 19 17 18 19 17 17 18 18 17 20 13 12 12 12 11 10 9 9 7 4 9 9
4 4 2 4 4 6 5 7 10 8 7 11 12 13 12 15 15 16 16 17 19 18 17 18 18 17 16 16 17 16 13 11 11 10 9 8 7 7 6 6 6 5 4 6
2 3 4 5 8 6 7 7 10 8 9 10 13 13 12 13 15 14 14 15 17 16 16 15 17 14 12 13 14 13 13 18 13 12 11 11 10 10 9 9 7 6 6 5
2 2 3 6 8 7 8 6 9 9 10 12 12 12 14 13 12 14 14 14 14 15 13 13 15 15 16 14 15 12 11 10 13 11 10 10 10 10 8 6 6 8 7 5
6 5 3 7 8 10 8 7 9 11 11 10 11 12 15 15 14 14 13 14 15 15 14 13 13 15 14 11 10 9 9 10 11 10 9 10 9 8 7 7 6 9 7 7
7 8 6 10 7 11 9 8 9 9 11 11 13 13 13 13 12 13 14 14 14 14 8 9 12 14 11 10 12 10 11 11 11 9 9 11 9 8 8 8 8 7 6 6
8 8 7 12 9 9 12 10 9 11 11 13 14 14 16 14 12 14 13 13 7 5 9 10 10 9 12 16 16 11 12 10 9 10 10 9 9 8 8 11 8 7 6 5
8 8 11 12 11 12 10 14 10 11 12 12 15 15 15 13 12 12 14 11 6 7 8 10 8 10 10 12 10 8 11 11 10 9 8 6 8 8 8 7 6 6 5 5
7 8 10 9 12 12 10 11 13 11 11 12 12 14 15 14 10 7 8 8 3 9 7 6 6 8 8 15 10 8 8 8 7 8 7 7 7 8 7 7 6 6 6 6
7 9 11 9 12 13 11 10 11 12 10 10 12 12 12 7 6 9 10 3 4 9 7 5 6 11 12 9 8 8 9 9 8 7 6 6 7 7 6 6 6 6 6 6
8 10 11 10 9 10 11 9 8 10 8 6 8 12 9 7 6 5 3 7 10 11 6 5 8 12 10 8 9 9 9 9 9 8 8 9 7 6 6 6 6 5 5 6
10 9 11 10 8 7 8 12 11 10 11 7 10 12 13 5 7 4 6 7 14 9 5 6 10 10 8 9 7 8 8 6 6 6 6 6 6 6 6 6 6 6 6 6
11 8 7 9 6 6 3 3 5 6 9 9 7 7 9 9 8 7 6 8 8 7 5 4 5 6 6 6 8 8 7 7 6 7 8 7 7 6 6 6 6 6 5 5
10 8 7 7 4 3 5 3 1 4 6 10 10 9 10 8 8 7 6 6 5 5 4 5 5 7 9 10 10 9 7 6 7 6 6 6 5 5 6 6 6 5 5 5
Wind_Direction
255 266 269 267 272 268 258 246 253 285 286 286 250 275 354 337 50 312 300 315 135 127 108 109 105 89 115 120 146 133 126 121 118 113 113 114 118 105 101 94 95 86 79 69
282 283 269 276 279 278 263 249 247 263 274 278 260 236 351 22 181 311 347 128 274 110 108 100 96 96 93 96 124 104 100 110 111 117 117 118 105 101 100 99 89 82 72 67
275 313 307 164 352 351 342 290 307 266 266 291 76 24 22 344 336 353 348 146 145 112 111 109 108 103 116 105 90 92 95 112 118 123 111 102 103 103 106 102 96 87 74 68
286 312 357 109 28 353 334 46 22 345 334 339 5 54 64 333 261 261 141 155 124 112 109 116 113 106 93 99 91 99 111 112 111 118 104 102 109 114 111 106 99 89 77 64
280 305 281 13 355 338 337 304 34 337 326 321 325 336 351 343 75 71 147 132 124 116 112 112 114 109 106 116 121 122 121 114 115 104 109 118 120 116 104 97 99 90 80 71
320 278 314 14 333 318 312 249 4 338 313 312 315 32 315 311 311 55 160 104 115 114 111 115 122 114 126 127 126 122 120 114 107 116 122 120 116 107 103 98 94 91 87 74
285 275 98 4 339 315 355 322 312 298 285 282 274 339 290 301 90 65 128 114 111 110 109 114 120 121 123 117 115 115 110 109 116 119 119 116 113 109 107 104 99 96 88 68
329 299 339 4 345 3 297 298 302 304 352 97 123 91 77 64 67 325 115 114 107 106 111 114 119 118 113 113 117 111 112 114 118 120 117 112 105 103 108 111 107 97 82 68
255 281 340 344 322 312 307 313 330 343 28 71 96 77 43 53 104 124 105 108 108 107 106 108 110 111 112 115 117 117 116 116 96 82 71 63 71 71 82 92 98 91 86 77
291 226 334 315 331 323 323 343 350 1 34 69 92 89 74 75 64 84 92 102 104 103 102 105 108 106 107 113 101 93 96 91 84 83 80 73 70 69 77 85 88 93 88 75
260 299 321 311 329 326 330 354 19 19 31 64 77 62 68 71 96 92 96 96 97 105 106 107 109 109 97 103 109 105 97 92 88 86 86 81 68 70 81 60 100 104 93 100
291 355 282 289 318 318 332 21 16 31 41 37 59 67 64 72 91 98 100 101 99 97 99 104 97 99 101 104 105 105 102 99 101 99 93 92 94 85 62 82 87 90 97 92
266 312 279 296 300 323 337 44 31 43 49 65 57 70 75 87 91 98 97 100 99 101 101 98 100 101 101 104 104 102 104 108 106 103 105 107 106 104 100 59 63 63 63 71
296 284 263 303 313 5 357 52 45 51 61 64 76 71 79 90 91 91 95 102 104 104 107 105 104 105 109 111 112 114 114 113 112 114 114 112 109 105 103 101 93 52 29 50
345 357 3 304 54 37 26 64 67 52 73 79 69 80 84 93 95 99 102 105 106 105 102 107 109 111 117 118 115 114 112 112 111 113 114 114 108 100 92 86 84 88 49 33
6 50 43 48 89 62 52 69 77 65 75 84 83 78 83 88 96 98 99 100 104 110 114 112 113 119 115 109 102 100 98 95 98 98 96 91 88 86 85 83 79 71 65 61
135 84 71 80 88 92 66 47 78 81 82 86 84 89 89 91 91 97 96 96 98 102 102 97 101 105 104 102 103 102 100 97 96 96 95 96 96 94 92 88 85 76 75 72
103 112 66 117 116 117 97 78 82 83 81 83 85 89 91 95 100 100 97 98 94 90 93 99 103 103 100 97 97 95 99 97 98 100 105 106 109 111 111 104 92 86 72 67
119 122 102 134 113 116 113 97 83 80 79 87 86 85 87 86 95 97 98 96 96 100 96 99 91 100 101 92 93 93 91 92 92 91 92 90 91 93 93 90 88 85 83 77
104 117 93 125 118 125 132 112 92 88 91 96 96 89 78 71 73 85 86 80 72 85 93 87 85 87 94 89 90 97 101 98 86 88 90 89 89 91 92 88 91 87 87 86
113 125 109 123 103 103 99 119 112 95 102 96 95 90 95 81 72 78 89 89 42 79 88 74 87 98 102 106 101 89 94 99 100 103 99 92 88 88 87 87 89 90 89 88
127 117 106 110 125 115 111 110 122 117 112 106 103 96 101 107 108 104 96 112 127 74 65 62 65 78 100 95 99 95 95 92 91 91 92 93 95 96 94 93 88 81 78 79
139 132 125 114 119 120 118 113 111 127 123 136 125 123 119 144 138 138 132 165 71 86 76 65 79 101 92 94 93 90 94 95 93 94 94 92 93 91 93 99 98 97 91 87
134 133 128 135 125 135 135 132 129 123 116 103 122 123 117 132 120 130 93 97 108 88 77 61 83 92 83 90 93 94 87 89 95 98 104 106 105 104 99 97 98 103 95 89
142 136 136 148 125 124 135 148 154 145 146 162 145 149 150 157 144 124 108 125 99 90 90 69 76 95 101 105 106 98 103 100 107 103 99 98 98 102 104 100 99 98 97 97
139 137 134 145 150 143 150 87 133 166 155 157 151 140 116 109 107 109 122 115 107 115 109 99 96 107 113 112 107 105 104 114 99 102 104 104 109 113 114 110 105 107 120 126
136 142 147 136 183 229 128 154 261 136 151 124 123 115 119 121 120 123 115 113 114 115 111 115 117 105 108 111 117 123 127 113 114 107 110 115 122 131 117 114 110 108 100 107